| time (UTC) | temp F | wind direction | speed MPH | gust MPH | rain 1hr in | rain 24hr in | rain mn in | humidity % | barometer mb |
| 20260505014514 | 69 | 127 | 0.0 | 4.0 | 0.00 | 0.00 | 0.00 | 65 | 1011.0 |
| 20260505013007 | 70 | 112 | 2.0 | 4.0 | 0.00 | 0.00 | 0.00 | 63 | 1011.1 |
| 20260505011509 | 70 | 44 | 2.0 | 6.0 | 0.00 | 0.00 | 0.00 | 63 | 1010.9 |
| 20260505010012 | 70 | 86 | 0.0 | 6.0 | 0.00 | 0.00 | 0.00 | 61 | 1010.9 |
| 20260505004504 | 70 | 116 | 1.0 | 4.0 | 0.00 | 0.00 | 0.00 | 60 | 1011.3 |
| 20260505003003 | 71 | 105 | 1.0 | 4.0 | 0.00 | 0.00 | 0.00 | 58 | 1011.2 |
| 20260505001502 | 72 | 322 | 1.0 | 5.0 | 0.00 | 0.00 | 0.00 | 57 | 1011.3 |
| 20260505000001 | 72 | 276 | 1.0 | 5.0 | 0.00 | 0.00 | 0.00 | 55 | 1011.3 |
| 20260504234600 | 73 | 134 | 2.0 | 5.0 | 0.00 | 0.00 | 0.00 | 54 | 1011.3 |
| 20260504233108 | 74 | 123 | 2.0 | 5.0 | 0.00 | 0.00 | 0.00 | 52 | 1011.5 |
| 20260504231558 | 75 | 110 | 1.0 | 6.0 | 0.00 | 0.00 | 0.00 | 49 | 1011.6 |
| 20260504230113 | 76 | 45 | 3.0 | 8.0 | 0.00 | 0.00 | 0.00 | 48 | 1011.8 |
| 20260504224625 | 77 | 291 | 2.0 | 6.0 | 0.00 | 0.00 | 0.00 | 46 | 1011.8 |
| 20260504223054 | 78 | 173 | 2.0 | 6.0 | 0.00 | 0.00 | 0.00 | 43 | 1012.0 |
| 20260504221553 | 78 | 106 | 3.0 | 6.0 | 0.00 | 0.00 | 0.00 | 42 | 1012.1 |
| 20260504220057 | 78 | 31 | 2.0 | 6.0 | 0.00 | 0.00 | 0.00 | 41 | 1012.3 |
| 20260504214550 | 78 | 337 | 2.0 | 6.0 | 0.00 | 0.00 | 0.00 | 42 | 1012.1 |
| 20260504213048 | 79 | 307 | 2.0 | 6.0 | 0.00 | 0.00 | 0.00 | 40 | 1012.2 |
| 20260504211550 | 79 | 20 | 2.0 | 11.0 | 0.00 | 0.00 | 0.00 | 39 | 1012.5 |
| 20260504210059 | 79 | 115 | 2.0 | 5.0 | 0.00 | 0.00 | 0.00 | 39 | 1012.2 |
| 20260504204548 | 79 | 302 | 3.0 | 7.0 | 0.00 | 0.00 | 0.00 | 38 | 1012.6 |
| 20260504203045 | 79 | 5 | 3.0 | 7.0 | 0.00 | 0.00 | 0.00 | 39 | 1012.8 |
| 20260504201546 | 79 | 360 | 4.0 | 9.0 | 0.00 | 0.00 | 0.00 | 40 | 1013.1 |
| 20260504200050 | 80 | 359 | 2.0 | 7.0 | 0.00 | 0.00 | 0.00 | 38 | 1013.4 |
| 20260504194536 | 80 | 273 | 3.0 | 9.0 | 0.00 | 0.00 | 0.00 | 39 | 1013.6 |
| 20260504193033 | 80 | 156 | 3.0 | 8.0 | 0.00 | 0.00 | 0.00 | 39 | 1013.7 |
| 20260504191534 | 80 | 271 | 3.0 | 8.0 | 0.00 | 0.00 | 0.00 | 43 | 1013.7 |
| 20260504190030 | 80 | 46 | 2.0 | 7.0 | 0.00 | 0.00 | 0.00 | 47 | 1014.0 |
| 20260504184534 | 81 | 301 | 1.0 | 7.0 | 0.00 | 0.00 | 0.00 | 44 | 1014.2 |
| 20260504183033 | 80 | 114 | 2.0 | 8.0 | 0.00 | 0.00 | 0.00 | 44 | 1014.3 |
| 20260504181525 | 81 | 359 | 1.0 | 7.0 | 0.00 | 0.00 | 0.00 | 42 | 1014.4 |
| 20260504180025 | 80 | 278 | 2.0 | 7.0 | 0.00 | 0.00 | 0.00 | 43 | 1014.4 |
| 20260504174522 | 79 | 163 | 0.0 | 5.0 | 0.00 | 0.00 | 0.00 | 41 | 1014.6 |
| 20260504173019 | 80 | 205 | 1.0 | 5.0 | 0.00 | 0.00 | 0.00 | 46 | 1014.6 |
| 20260504171518 | 80 | 136 | 3.0 | 9.0 | 0.00 | 0.00 | 0.00 | 40 | 1014.6 |
| 20260504081526 | 56 | 37 | 0.0 | 0.0 | 0.00 | 0.00 | 0.00 | 85 | 1014.6 |
| 20260504044550 | 60 | 130 | 0.0 | 0.0 | 0.00 | 0.00 | 0.00 | 78 | 1016.4 |
| 20260504043108 | 62 | 129 | 0.0 | 0.0 | 0.00 | 0.00 | 0.00 | 77 | 1016.6 |
| 20260504041546 | 63 | 129 | 0.0 | 0.0 | 0.00 | 0.00 | 0.00 | 76 | 1016.7 |
| 20260504040046 | 63 | 121 | 0.0 | 2.0 | 0.00 | 0.00 | 0.00 | 74 | 1016.5 |
| 20260504034551 | 64 | 121 | 0.0 | 2.0 | 0.00 | 0.00 | 0.00 | 71 | 1016.5 |
| 20260504033045 | 65 | 121 | 0.0 | 3.0 | 0.00 | 0.00 | 0.00 | 67 | 1016.6 |
| 20260504031551 | 65 | 124 | 0.0 | 1.0 | 0.00 | 0.00 | 0.00 | 68 | 1016.5 |
| 20260504030101 | 65 | 125 | 0.0 | 2.0 | 0.00 | 0.00 | 0.00 | 65 | 1016.5 |
| 20260504024544 | 66 | 141 | 1.0 | 3.0 | 0.00 | 0.00 | 0.00 | 61 | 1016.3 |
| 20260504023044 | 67 | 132 | 0.0 | 3.0 | 0.00 | 0.00 | 0.00 | 58 | 1016.3 |
| 20260504021547 | 67 | 123 | 1.0 | 3.0 | 0.00 | 0.00 | 0.00 | 56 | 1016.2 |
| 20260504020041 | 66 | 129 | 0.0 | 2.0 | 0.00 | 0.00 | 0.00 | 59 | 1016.0 |